Das Wetter in  D-61279 Heinzenberg / Taunus





Wetter Minimum- & Maximum-Werte im Februar 2010

Standort: Heinzenberg / Taunus - Höhe 297 m         8° 24' 1" Ost 50° 21' 51" Nord
(   3-stündige Aktualisierung    letzte Aktualisierung um 20:46 am 28.02.2010  )


Messgrösse

Minimum

Maximum

Durchschnitt

Temperatur West /
Luftfeuchte West
Anklicken für Monats-Diagramm

-11,5 °C

03:45
17.02.2010

46 %

16:24
27.02.2010

12,5 °C

16:19
27.02.2010

99 %

18:03
02.02.2010

Temp

0,5 °C

Feuchte

89 %

Temperatur Ost /
Luftfeuchte Ost
Anklicken für Monats-Diagramm

-11,2 °C

03:40
17.02.2010

--

--
--

12,5 °C

16:44
27.02.2010

--

--
--

0,3 °C

--

Luftdruck Anklicken für Monats-Diagramm

984,7 hPa

11:05
28.02.2010

1022,2 hPa

09:23
07.02.2010

1005,6 hPa

Taupunkt

-12,7 °C

03:45
17.02.2010

7,7 °C

15:30
23.02.2010

-1,3 °C

Windchill
( gefühlte Temperatur )

-16,8 °C

19:18
01.02.2010

11,4 °C

16:21
24.02.2010

-2,9 °C

Windgeschwindigkeit /
Windrichtung
Anklicken für Monats-Diagramm

---

89,4 km/h / W

15:15
28.02.2010

9,9 km/h
W-SW

Helligkeit /
Sonnenschein
Anklicken für Monats-Diagramm
Anklicken für Monats-Diagramm

Sonnenschein:

45:44 Stunden

Max: 6:40 Std am
27.02.2010

83,8 klux

12:31
18.02.2010

15,1 klux

Solarstrahlung Anklicken für Monats-Diagramm

---

573 W/m²

12:31
18.02.2010

114 W/m²

Regenmenge
    Februar 2010
Anklicken für Monats-Diagramm

Insgesamt 48,0 l/m²

in 116:24 Stunden
an 23 Tagen

10,2 l/m²

13:35
23.02.2010

Gesamtmenge

48,0 l/m²

Regen-Tage
    Februar 2010
Anklicken für Monats-Diagramm

>   0 mm/Tag

>   2 mm/Tag

>   5 mm/Tag

> 10 mm/Tag

> 20 mm/Tag

23 Tage     
8 Tage     
3 Tage     
  1 Tag     
0 Tage     

Eisige Tage Februar 2010 / 2009

Tmin ≤ -10°C     

  1 Tag

/

  1 Tag

Eistage Februar 2010 / 2009

Tmax <     0°C     

8 Tage

/

  1 Tag

Frosttage Februar 2010 / 2009

Tmin ≤     0°C     

18 Tage

/

22 Tage

Kalte Tage Februar 2010 / 2009

Tmax <   10°C     

24 Tage

/

27 Tage

Warme Tage Februar 2010 / 2009

Tmax ≥   20°C     

0 Tage

/

0 Tage

Sommertage Februar 2010 / 2009

Tmax ≥   25°C     

0 Tage

/

0 Tage

Heisse Tage Februar 2010 / 2009

Tmax ≥   30°C     

0 Tage

/

0 Tage


Monatsdiagramm Februar 2010

Die Kurven zeigen den Durchschnittswert des jeweiligen Tages an


Wetter-Monatsübersicht Februar 2010
Datum
  Temperatur
   Luftdruck
   Wind
  Regen
   Luftfeuchte
   Helligkeit

Sonnen-
schein

Ø
Temp.

Min.
Temp.

Max.
Temp.

Ø
Luftdruck

Min.
Luftdruck

Max.
Luftdruck

Ø-Geschw.
Haupt-Richtg.

Max.
Wind

Menge /
Dauer

Ø
Feuchte

Min.
Feuchte

Max.
Feuchte

Ø
Helligkeit

Max.
Helligkeit

1.
Februar
-1,6 °C-3,1 °C
00:18
0,5 °C
15:13
1010,2 hPa1008,9 hPa
14:23
1014,1 hPa
23:28
17,6 km/h
W-SW
37,9 km/h
19:18  
---
2:20 Stunden
93 %84 %
15:18
98 %
20:58
15,2 klux41,1 klux
14:28
1:35 Std 
2.
Februar
-0,8 °C-4,2 °C
04:23
2,3 °C
23:59
1011,4 hPa1001,3 hPa
23:59
1017,7 hPa
04:23
22,5 km/h
W-SW
53,2 km/h
23:59  
1,1 l/m²
8:56 Stunden
93 %84 %
01:58
99 %
18:03
11,7 klux34,5 klux
10:58
45 Min 
3.
Februar
0,8 °C-1,0 °C
19:04
3,3 °C
02:34
1009,8 hPa1001,1 hPa
02:34
1016,1 hPa
21:39
11,6 km/h
W
44,6 km/h
00:29  
0,6 l/m²
4:25 Stunden
96 %89 %
14:34
99 %
05:19
10,7 klux32,3 klux
11:39
10 Min 
4.
Februar
2,6 °C0,2 °C
00:00
5,5 °C
14:15
1014,4 hPa1011,6 hPa
23:56
1016,1 hPa
00:00
4,9 km/h
W-SW
20,8 km/h
22:00  
1,2 l/m²
2:00 Stunden
97 %89 %
14:50
99 %
00:00
12,7 klux27,3 klux
12:00
45 Min 
5.
Februar
1,3 °C0,5 °C
22:57
2,3 °C
13:16
1009,7 hPa1008,5 hPa
13:16
1011,8 hPa
23:47
9,1 km/h
O-SO
34,7 km/h
12:06  
4,4 l/m²
7:26 Stunden
95 %88 %
13:06
99 %
20:51
9,7 klux21,5 klux
13:01
--- 
6.
Februar
1,1 °C0,4 °C
02:42
2,4 °C
13:27
1013,9 hPa1011,8 hPa
09:02
1019,1 hPa
23:13
0,9 km/h
NW
9,5 km/h
08:42  
0,2 l/m²
1:05 Stunden
99 %99 %
00:02
99 %
00:02
10,1 klux28,0 klux
12:52
--- 
7.
Februar
0,2 °C-2,9 °C
23:53
1,8 °C
13:43
1020,5 hPa1018,5 hPa
22:53
1022,2 hPa
09:23
1,6 km/h
O-NO
13,4 km/h
16:58  
---
25 Minuten
98 %95 %
18:03
99 %
00:03
7,6 klux15,4 klux
13:03
--- 
8.
Februar
-5,3 °C-8,7 °C
22:18
-2,9 °C
00:03
1013,6 hPa1008,8 hPa
23:54
1018,7 hPa
02:53
4,7 km/h
O-NO
21,6 km/h
11:18  
---
92 %87 %
15:23
96 %
00:03
8,6 klux19,4 klux
12:58
--- 
9.
Februar
-6,3 °C-7,4 °C
00:04
-4,9 °C
13:49
1007,5 hPa1006,4 hPa
13:49
1008,8 hPa
00:04
4,1 km/h
O-NO
16,3 km/h
02:09  
---
88 %83 %
14:49
94 %
00:04
8,8 klux19,3 klux
12:04
--- 
10.
Februar
-6,5 °C-9,5 °C
23:46
-3,1 °C
14:45
1009,7 hPa1007,7 hPa
00:55
1012,2 hPa
23:46
1,8 km/h
NW
20,1 km/h
13:50  
---
2:45 Stunden
86 %72 %
12:00
92 %
04:40
20,5 klux52,0 klux
13:45
4:00 Std 
11.
Februar
-5,2 °C-9,4 °C
00:01
-3,2 °C
14:51
1011,4 hPa1010,3 hPa
14:51
1012,4 hPa
20:21
3,6 km/h
NW
13,8 km/h
18:06  
2,9 l/m²
13:30 Stunden
91 %87 %
18:36
93 %
00:06
8,1 klux18,1 klux
12:36
--- 
12.
Februar
-2,7 °C-4,3 °C
23:57
-0,7 °C
14:31
1015,6 hPa1012,4 hPa
00:36
1018,7 hPa
23:57
4,2 km/h
NW
15,5 km/h
10:36  
0,9 l/m²
5:46 Stunden
86 %78 %
13:21
92 %
00:01
13,5 klux29,7 klux
14:26
5 Min 
13.
Februar
-4,4 °C-7,1 °C
04:22
-1,1 °C
14:52
1017,5 hPa1016,2 hPa
14:52
1019,0 hPa
09:12
1,3 km/h
W
10,3 km/h
12:07  
---
40 Minuten
87 %73 %
15:27
95 %
08:07
20,3 klux65,6 klux
13:12
3:25 Std 
14.
Februar
-4,3 °C-6,1 °C
23:04
-1,8 °C
13:08
1014,3 hPa1012,8 hPa
23:29
1015,7 hPa
02:13
0,3 km/h
O-SO
7,9 km/h
16:08  
1,2 l/m²
10:16 Stunden
91 %84 %
14:53
95 %
03:53
9,0 klux26,8 klux
11:13
--- 
15.
Februar
-3,8 °C-7,2 °C
04:14
-0,2 °C
14:54
1009,6 hPa1007,1 hPa
20:19
1012,8 hPa
01:29
4,2 km/h
O-SO
18,7 km/h
16:14  
---
4:10 Stunden
90 %80 %
15:04
97 %
06:34
16,2 klux39,3 klux
14:29
1:35 Std 
16.
Februar
-2,9 °C-8,0 °C
23:45
0,8 °C
13:00
1004,6 hPa1001,6 hPa
23:30
1007,2 hPa
00:10
3,9 km/h
O-SO
23,1 km/h
13:55  
---
5:45 Stunden
84 %68 %
17:10
94 %
02:45
20,7 klux83,1 klux
12:55
3:20 Std 
17.
Februar
-3,8 °C-11,5 °C
03:45
2,4 °C
13:25
997,5 hPa994,3 hPa
23:21
1001,9 hPa
01:40
4,8 km/h
O-SO
23,3 km/h
10:25  
0,3 l/m²
4:21 Stunden
84 %67 %
13:20
93 %
08:15
23,2 klux60,3 klux
12:10
3:55 Std 
18.
Februar
2,1 °C-0,3 °C
00:26
7,0 °C
16:41
997,8 hPa995,3 hPa
01:51
1000,6 hPa
22:21
4,6 km/h
W-SW
25,1 km/h
14:21  
6,2 l/m²
7:34 Stunden
90 %75 %
16:36
99 %
08:51
22,5 klux83,8 klux
12:31
4:40 Std 
19.
Februar
3,1 °C0,7 °C
08:12
6,6 °C
12:12
995,2 hPa992,4 hPa
12:12
999,2 hPa
00:52
9,7 km/h
W
29,6 km/h
18:22  
---
86 %74 %
17:27
96 %
08:37
12,0 klux40,4 klux
12:02
15 Min 
20.
Februar
0,4 °C-2,0 °C
07:08
3,7 °C
13:28
999,8 hPa998,4 hPa
00:03
1002,8 hPa
23:58
12,6 km/h
W-SW
36,8 km/h
15:28  
---
79 %65 %
15:28
89 %
07:33
28,4 klux78,8 klux
13:08
5:55 Std 
21.
Februar
0,9 °C-1,6 °C
00:03
3,9 °C
17:13
1001,4 hPa998,4 hPa
23:34
1002,8 hPa
00:03
9,8 km/h
W-SW
31,7 km/h
12:33  
4,3 l/m²
2:55 Stunden
88 %78 %
13:33
97 %
06:58
17,2 klux47,5 klux
12:48
1:30 Std 
22.
Februar
4,4 °C-2,1 °C
02:34
9,0 °C
21:44
993,5 hPa989,0 hPa
21:44
998,6 hPa
01:19
14,9 km/h
W-SW
43,3 km/h
22:25  
1,4 l/m²
4:55 Stunden
89 %77 %
21:34
97 %
02:49
17,8 klux56,8 klux
13:19
2:05 Std 
23.
Februar
7,4 °C6,4 °C
09:00
8,3 °C
01:15
993,4 hPa990,2 hPa
01:15
997,6 hPa
23:46
13,3 km/h
W-SW
43,0 km/h
00:30  
10,2 l/m²
13:05 Stunden
93 %80 %
00:00
99 %
21:15
10,9 klux30,5 klux
11:20
--- 
24.
Februar
7,6 °C5,6 °C
08:06
11,4 °C
16:21
1000,0 hPa997,6 hPa
00:01
1001,7 hPa
23:47
10,7 km/h
W-SW
30,2 km/h
21:01  
3,3 l/m²
2:20 Stunden
90 %73 %
17:06
98 %
04:46
18,9 klux60,2 klux
13:26
2:35 Std 
25.
Februar
7,9 °C5,7 °C
05:22
10,6 °C
14:42
997,9 hPa992,3 hPa
23:53
1000,7 hPa
02:37
19,3 km/h
W-SW
37,7 km/h
04:32  
2,4 l/m²
3:00 Stunden
83 %64 %
16:52
94 %
00:02
17,1 klux80,1 klux
13:07
1:34 Std 
26.
Februar
7,0 °C3,8 °C
23:24
9,4 °C
11:28
994,2 hPa990,2 hPa
04:23
1004,2 hPa
23:49
25,0 km/h
W-SW
51,0 km/h
16:38  
0,9 l/m²
3:10 Stunden
84 %72 %
13:28
93 %
00:43
12,7 klux40,2 klux
09:38
25 Min 
27.
Februar
6,5 °C2,4 °C
06:29
12,5 °C
16:19
1003,2 hPa995,4 hPa
23:10
1007,4 hPa
08:14
19,6 km/h
W-SW
37,9 km/h
00:19  
---
69 %46 %
16:24
85 %
07:39
30,9 klux75,8 klux
12:39
6:40 Std 
28.
Februar
7,6 °C4,3 °C
04:55
11,1 °C
10:25
990,2 hPa984,7 hPa
11:05
998,7 hPa
23:46
36,4 km/h
W
89,4 km/h
15:15  
6,5 l/m²
5:35 Stunden
74 %54 %
15:15
96 %
07:15
8,7 klux71,6 klux
10:10
30 Min 



Februar
2010

Temperatur

  

Luftdruck

  

Wind

  

Regen

  

Luftfeuchte

  

Helligkeit

Sonnen-
schein

Ø

Min

Max

Ø

Min

Max

Ø

Max

Max

Ø

Min

Max

Ø

Max

Max

0,5 °C

-11,5 °C

03:45 Uhr
17.02.2010

12,5 °C

16:19 Uhr
27.02.2010

1005,6 hPa

984,7 hPa

11:05 Uhr
28.02.2010

1022,2 hPa

09:23 Uhr
07.02.2010

9,9 km/h

W-SW

89,4 km/h

15:15 Uhr
28.02.2010

10,2 l/m²

13:05 Stunden
23.02.2010

89 %

46 %

16:24 Uhr
27.02.2010

99 %

18:03 Uhr
02.02.2010

15,1 klux

83,8 klux

12:31 Uhr
18.02.2010

6:40 Std

am
27.02.2010

Gesamt

Gesamt

48,0 l/m²

23 Tage
116:24 h

45:44 Std


Wetter-Diagramme Februar 2010     Heinzenberg / Taunus   
TemperaturLuftfeuchte
SolarstrahlungLuftdruck
HelligkeitSonnenschein
RegenmengeRegendauer
Wind-GeschwindigkeitWind-Richtung